| time (UTC) | temp F | wind direction | speed knots | gust knots | rain 1hr in | rain 24hr in | rain mn in | humidity % | barometer mb |
| 20260507234934 | 87 | 290 | 1.7 | 3.5 | 0.00 | 0.00 | 0.00 | 40 | 1013.6 |
| 20260507234404 | 87 | 297 | 1.7 | 5.2 | 0.00 | 0.00 | 0.00 | 39 | 1013.6 |
| 20260507233905 | 87 | 299 | 1.7 | 6.1 | 0.00 | 0.00 | 0.00 | 38 | 1013.5 |
| 20260507233404 | 88 | 304 | 1.7 | 6.1 | 0.00 | 0.00 | 0.00 | 38 | 1013.6 |
| 20260507232904 | 88 | 307 | 1.7 | 3.5 | 0.00 | 0.00 | 0.00 | 38 | 1013.6 |
| 20260507231305 | 89 | 289 | 2.6 | 7.0 | 0.00 | 0.00 | 0.00 | 36 | 1013.4 |
| 20260507230805 | 89 | 285 | 2.6 | 7.8 | 0.00 | 0.00 | 0.00 | 35 | 1013.4 |
| 20260507230235 | 90 | 284 | 2.6 | 7.0 | 0.00 | 0.00 | 0.00 | 34 | 1013.4 |
| 20260507225735 | 90 | 284 | 2.6 | 5.2 | 0.00 | 0.00 | 0.00 | 36 | 1013.4 |
| 20260507225204 | 90 | 285 | 2.6 | 7.0 | 0.00 | 0.00 | 0.00 | 38 | 1013.4 |
| 20260507224635 | 90 | 272 | 3.5 | 7.8 | 0.00 | 0.00 | 0.00 | 39 | 1013.4 |
| 20260507224134 | 90 | 275 | 3.5 | 7.8 | 0.00 | 0.00 | 0.00 | 40 | 1013.3 |
| 20260507223634 | 90 | 286 | 3.5 | 7.8 | 0.00 | 0.00 | 0.00 | 41 | 1013.2 |
| 20260507223104 | 90 | 283 | 3.5 | 7.8 | 0.00 | 0.00 | 0.00 | 41 | 1013.2 |
| 20260507222534 | 90 | 286 | 1.7 | 7.8 | 0.00 | 0.00 | 0.00 | 42 | 1013.1 |
| 20260507221504 | 91 | 265 | 2.6 | 7.0 | 0.00 | 0.00 | 0.00 | 43 | 1013.0 |
| 20260507220935 | 91 | 270 | 1.7 | 5.2 | 0.00 | 0.00 | 0.00 | 42 | 1013.0 |
| 20260507220434 | 91 | 270 | 1.7 | 6.1 | 0.00 | 0.00 | 0.00 | 42 | 1013.1 |
| 20260507215934 | 91 | 280 | 2.6 | 7.0 | 0.00 | 0.00 | 0.00 | 41 | 1013.1 |
| 20260507215435 | 91 | 294 | 1.7 | 7.0 | 0.00 | 0.00 | 0.00 | 41 | 1013.1 |
| 20260507214904 | 91 | 308 | 1.7 | 7.0 | 0.00 | 0.00 | 0.00 | 40 | 1013.1 |
| 20260507214404 | 91 | 291 | 3.5 | 7.0 | 0.00 | 0.00 | 0.00 | 39 | 1013.1 |
| 20260507213834 | 92 | 280 | 3.5 | 7.0 | 0.00 | 0.00 | 0.00 | 38 | 1013.2 |
| 20260507213334 | 92 | 293 | 1.7 | 6.1 | 0.00 | 0.00 | 0.00 | 37 | 1013.1 |
| 20260507211804 | 92 | 322 | 1.7 | 5.2 | 0.00 | 0.00 | 0.00 | 35 | 1013.2 |
| 20260507211305 | 93 | 316 | 1.7 | 5.2 | 0.00 | 0.00 | 0.00 | 34 | 1013.2 |
| 20260507210735 | 93 | 323 | 1.7 | 4.3 | 0.00 | 0.00 | 0.00 | 34 | 1013.2 |
| 20260507210204 | 93 | 314 | 2.6 | 3.5 | 0.00 | 0.00 | 0.00 | 33 | 1013.3 |
| 20260507205704 | 93 | 313 | 1.7 | 3.5 | 0.00 | 0.00 | 0.00 | 32 | 1013.3 |
| 20260507205204 | 93 | 321 | 2.6 | 5.2 | 0.00 | 0.00 | 0.00 | 31 | 1013.3 |
| 20260507204634 | 93 | 322 | 2.6 | 6.1 | 0.00 | 0.00 | 0.00 | 30 | 1013.4 |
| 20260507204134 | 93 | 305 | 2.6 | 6.1 | 0.00 | 0.00 | 0.00 | 30 | 1013.5 |
| 20260507203134 | 94 | 330 | 2.6 | 5.2 | 0.00 | 0.00 | 0.00 | 32 | 1013.4 |
| 20260507202604 | 94 | 326 | 2.6 | 5.2 | 0.00 | 0.00 | 0.00 | 32 | 1013.4 |
| 20260507202104 | 94 | 301 | 2.6 | 7.8 | 0.00 | 0.00 | 0.00 | 33 | 1013.5 |
| 20260507201104 | 95 | 287 | 2.6 | 7.0 | 0.00 | 0.00 | 0.00 | 37 | 1013.5 |
| 20260507200534 | 94 | 293 | 2.6 | 7.8 | 0.00 | 0.00 | 0.00 | 39 | 1013.6 |
| 20260507195435 | 95 | 285 | 2.6 | 7.8 | 0.00 | 0.00 | 0.00 | 39 | 1013.7 |
| 20260507194904 | 95 | 283 | 2.6 | 7.8 | 0.00 | 0.00 | 0.00 | 38 | 1013.8 |
| 20260507194334 | 95 | 285 | 2.6 | 7.0 | 0.00 | 0.00 | 0.00 | 36 | 1013.8 |
| 20260507193834 | 94 | 274 | 1.7 | 5.2 | 0.00 | 0.00 | 0.00 | 40 | 1013.8 |
| 20260507193512 | 93 | 247 | 2.6 | 7.0 | 0.00 | 0.00 | 0.00 | 44 | 1013.9 |
| 20260507193304 | 93 | 247 | 2.6 | 7.0 | 0.00 | 0.00 | 0.00 | 44 | 1013.9 |
| 20260507192804 | 93 | 265 | 2.6 | 7.8 | 0.00 | 0.00 | 0.00 | 42 | 1013.9 |
| 20260507192234 | 94 | 273 | 2.6 | 7.8 | 0.00 | 0.00 | 0.00 | 44 | 1013.8 |
| 20260507191204 | 94 | 250 | 2.6 | 7.8 | 0.00 | 0.00 | 0.00 | 44 | 1014.1 |
| 20260507190134 | 93 | 282 | 2.6 | 7.0 | 0.00 | 0.00 | 0.00 | 47 | 1014.3 |
| 20260507185634 | 93 | 250 | 3.5 | 12.2 | 0.00 | 0.00 | 0.00 | 46 | 1014.5 |
| 20260507185134 | 93 | 232 | 4.3 | 12.2 | 0.00 | 0.00 | 0.00 | 48 | 1014.5 |
| 20260507184604 | 93 | 219 | 3.5 | 9.6 | 0.00 | 0.00 | 0.00 | 48 | 1014.6 |
| 20260507184034 | 93 | 232 | 2.6 | 8.7 | 0.00 | 0.00 | 0.00 | 50 | 1014.7 |
| 20260507183534 | 92 | 244 | 3.5 | 11.3 | 0.00 | 0.00 | 0.00 | 50 | 1014.8 |
| 20260507182434 | 92 | 205 | 2.6 | 9.6 | 0.00 | 0.00 | 0.00 | 51 | 1014.9 |
| 20260507181904 | 91 | 232 | 2.6 | 9.6 | 0.00 | 0.00 | 0.00 | 52 | 1015.0 |
| 20260507181334 | 92 | 248 | 2.6 | 9.6 | 0.00 | 0.00 | 0.00 | 52 | 1015.2 |
| 20260507180234 | 91 | 226 | 3.5 | 12.2 | 0.00 | 0.00 | 0.00 | 53 | 1015.3 |
| 20260507175734 | 91 | 235 | 3.5 | 8.7 | 0.00 | 0.00 | 0.00 | 52 | 1015.3 |
| 20260507175205 | 91 | 244 | 4.3 | 8.7 | 0.00 | 0.00 | 0.00 | 53 | 1015.5 |
| 20260507174204 | 90 | 238 | 4.3 | 11.3 | 0.00 | 0.00 | 0.00 | 55 | 1015.5 |
| 20260507173704 | 90 | 244 | 3.5 | 10.4 | 0.00 | 0.00 | 0.00 | 55 | 1015.5 |
| 20260507173135 | 90 | 258 | 4.3 | 10.4 | 0.00 | 0.00 | 0.00 | 57 | 1015.7 |
| 20260507172635 | 90 | 239 | 3.5 | 10.4 | 0.00 | 0.00 | 0.00 | 56 | 1015.7 |
| 20260507172134 | 90 | 226 | 3.5 | 10.4 | 0.00 | 0.00 | 0.00 | 59 | 1015.7 |
| 20260507171604 | 90 | 232 | 3.5 | 10.4 | 0.00 | 0.00 | 0.00 | 59 | 1015.5 |
| 20260507171034 | 90 | 232 | 3.5 | 10.4 | 0.00 | 0.00 | 0.00 | 60 | 1015.7 |
| 20260507170504 | 89 | 231 | 3.5 | 11.3 | 0.00 | 0.00 | 0.00 | 59 | 1015.7 |
| 20260507165934 | 90 | 235 | 3.5 | 9.6 | 0.00 | 0.00 | 0.00 | 58 | 1015.8 |
| 20260507165434 | 90 | 241 | 3.5 | 9.6 | 0.00 | 0.00 | 0.00 | 58 | 1015.9 |
| 20260507164904 | 89 | 242 | 4.3 | 9.6 | 0.00 | 0.00 | 0.00 | 60 | 1015.9 |
| 20260507164404 | 89 | 229 | 4.3 | 12.2 | 0.00 | 0.00 | 0.00 | 60 | 1015.9 |
| 20260507163834 | 89 | 217 | 4.3 | 11.3 | 0.00 | 0.00 | 0.00 | 60 | 1016.0 |
| 20260507162307 | 88 | 232 | 3.5 | 10.4 | 0.00 | 0.00 | 0.00 | 59 | 1016.1 |
| 20260507160734 | 88 | 235 | 3.5 | 9.6 | 0.00 | 0.00 | 0.00 | 60 | 1016.3 |
| 20260507160206 | 88 | 235 | 3.5 | 9.6 | 0.00 | 0.00 | 0.00 | 61 | 1016.5 |
| 20260507155704 | 87 | 232 | 3.5 | 9.6 | 0.00 | 0.00 | 0.00 | 61 | 1016.4 |
| 20260507155134 | 87 | 207 | 4.3 | 10.4 | 0.00 | 0.00 | 0.00 | 60 | 1016.5 |
| 20260507154604 | 86 | 218 | 3.5 | 10.4 | 0.00 | 0.00 | 0.00 | 61 | 1016.5 |
| 20260507153604 | 86 | 245 | 4.3 | 9.6 | 0.00 | 0.00 | 0.00 | 62 | 1016.7 |
| 20260507153034 | 86 | 245 | 3.5 | 8.7 | 0.00 | 0.00 | 0.00 | 60 | 1016.7 |
| 20260507151934 | 86 | 224 | 3.5 | 7.8 | 0.00 | 0.00 | 0.00 | 60 | 1016.7 |
| 20260507151434 | 86 | 212 | 2.6 | 8.7 | 0.00 | 0.00 | 0.00 | 60 | 1016.7 |
| 20260507150934 | 86 | 240 | 3.5 | 8.7 | 0.00 | 0.00 | 0.00 | 60 | 1016.6 |
| 20260507144834 | 84 | 249 | 5.2 | 16.5 | 0.00 | 0.00 | 0.00 | 63 | 1016.7 |
| 20260507142704 | 83 | 235 | 4.3 | 11.3 | 0.00 | 0.00 | 0.00 | 65 | 1016.6 |
| 20260507142134 | 82 | 235 | 4.3 | 11.3 | 0.00 | 0.00 | 0.00 | 67 | 1016.6 |
| 20260507141634 | 82 | 234 | 4.3 | 9.6 | 0.00 | 0.00 | 0.00 | 68 | 1016.6 |
| 20260507140104 | 81 | 216 | 3.5 | 11.3 | 0.00 | 0.00 | 0.00 | 67 | 1016.7 |
| 20260507135604 | 81 | 227 | 2.6 | 7.0 | 0.00 | 0.00 | 0.00 | 68 | 1016.7 |
| 20260507135034 | 80 | 217 | 2.6 | 5.2 | 0.00 | 0.00 | 0.00 | 73 | 1016.8 |
| 20260507134109 | 79 | 205 | 2.6 | 7.8 | 0.00 | 0.00 | 0.00 | 75 | 1016.8 |
| 20260507133934 | 79 | 205 | 2.6 | 7.8 | 0.00 | 0.00 | 0.00 | 75 | 1016.8 |
| 20260507133434 | 79 | 212 | 2.6 | 7.8 | 0.00 | 0.00 | 0.00 | 74 | 1016.8 |
| 20260507131905 | 77 | 194 | 2.6 | 6.1 | 0.00 | 0.00 | 0.00 | 75 | 1016.6 |
| 20260507131334 | 77 | 193 | 2.6 | 6.1 | 0.00 | 0.00 | 0.00 | 76 | 1016.5 |
| 20260507130834 | 77 | 203 | 2.6 | 6.1 | 0.00 | 0.00 | 0.00 | 78 | 1016.5 |
| 20260507125204 | 76 | 194 | 1.7 | 5.2 | 0.00 | 0.00 | 0.00 | 80 | 1016.3 |
| 20260507124637 | 75 | 181 | 2.6 | 6.1 | 0.00 | 0.00 | 0.00 | 81 | 1016.4 |
| 20260507124134 | 75 | 181 | 2.6 | 6.1 | 0.00 | 0.00 | 0.00 | 82 | 1016.4 |
| 20260507120934 | 72 | 182 | 1.7 | 5.2 | 0.00 | 0.00 | 0.00 | 87 | 1016.3 |
| 20260507120434 | 72 | 190 | 1.7 | 4.3 | 0.00 | 0.00 | 0.00 | 88 | 1016.4 |
| 20260507114906 | 72 | 188 | 1.7 | 5.2 | 0.00 | 0.00 | 0.00 | 88 | 1016.1 |
| 20260507114334 | 72 | 184 | 1.7 | 4.3 | 0.00 | 0.00 | 0.00 | 88 | 1016.2 |
| 20260507113834 | 72 | 182 | 0.9 | 4.3 | 0.00 | 0.00 | 0.00 | 88 | 1016.1 |
| 20260507112204 | 72 | 182 | 1.7 | 4.3 | 0.00 | 0.00 | 0.00 | 88 | 1016.1 |
| 20260507111705 | 72 | 186 | 0.9 | 3.5 | 0.00 | 0.00 | 0.00 | 88 | 1016.0 |
| 20260507111134 | 72 | 189 | 0.9 | 3.5 | 0.00 | 0.00 | 0.00 | 88 | 1015.8 |
| 20260507110634 | 72 | 187 | 0.9 | 3.5 | 0.00 | 0.00 | 0.00 | 87 | 1015.9 |
| 20260507110134 | 72 | 181 | 0.9 | 5.2 | 0.00 | 0.00 | 0.00 | 87 | 1015.7 |
| 20260507105635 | 72 | 181 | 1.7 | 5.2 | 0.00 | 0.00 | 0.00 | 87 | 1016.0 |
| 20260507105104 | 72 | 181 | 1.7 | 5.2 | 0.00 | 0.00 | 0.00 | 88 | 1015.9 |
| 20260507104034 | 71 | 180 | 0.9 | 4.3 | 0.00 | 0.00 | 0.00 | 90 | 1015.7 |
| 20260507103534 | 70 | 178 | 0.9 | 2.6 | 0.00 | 0.00 | 0.00 | 91 | 1015.8 |
| 20260507103034 | 70 | 169 | 0.0 | 2.6 | 0.00 | 0.00 | 0.00 | 91 | 1015.6 |
| 20260507101934 | 69 | 215 | 0.0 | 0.9 | 0.00 | 0.00 | 0.00 | 91 | 1015.7 |
| 20260507101404 | 70 | 215 | 0.0 | 0.9 | 0.00 | 0.00 | 0.00 | 90 | 1015.5 |
| 20260507100456 | 70 | 210 | 0.0 | 1.7 | 0.00 | 0.00 | 0.00 | 91 | 1015.4 |
| 20260507100335 | 70 | 213 | 0.0 | 1.7 | 0.00 | 0.00 | 0.00 | 90 | 1015.5 |
| 20260507095806 | 70 | 210 | 0.0 | 1.7 | 0.00 | 0.00 | 0.00 | 91 | 1015.4 |
| 20260507094704 | 70 | 191 | 0.0 | 0.9 | 0.00 | 0.00 | 0.00 | 90 | 1015.2 |
| 20260507094204 | 70 | 221 | 0.0 | 0.9 | 0.00 | 0.00 | 0.00 | 91 | 1015.1 |
| 20260507093834 | 70 | 246 | 0.0 | 0.9 | 0.00 | 0.00 | 0.00 | 93 | 1015.0 |
| 20260507093704 | 70 | 227 | 0.0 | 0.9 | 0.00 | 0.00 | 0.00 | 92 | 1015.0 |
| 20260507093207 | 70 | 246 | 0.0 | 0.9 | 0.00 | 0.00 | 0.00 | 93 | 1015.0 |
| 20260507092634 | 69 | 246 | 0.0 | 0.9 | 0.00 | 0.00 | 0.00 | 93 | 1014.9 |
| 20260507092104 | 70 | 246 | 0.0 | 0.9 | 0.00 | 0.00 | 0.00 | 93 | 1015.0 |
| 20260507090743 | 70 | 0 | 0.0 | 0.0 | 0.00 | 0.00 | 0.00 | 92 | 1015.2 |
| 20260507090534 | 70 | 0 | 0.0 | 0.0 | 0.00 | 0.00 | 0.00 | 92 | 1015.2 |
| 20260507084404 | 71 | 0 | 0.0 | 0.0 | 0.00 | 0.00 | 0.00 | 90 | 1015.2 |
| 20260507083404 | 72 | 246 | 0.0 | 0.9 | 0.00 | 0.00 | 0.00 | 90 | 1015.1 |
| 20260507082834 | 72 | 246 | 0.0 | 0.9 | 0.00 | 0.00 | 0.00 | 89 | 1014.9 |
| 20260507082306 | 72 | 246 | 0.0 | 0.9 | 0.00 | 0.00 | 0.00 | 89 | 1015.0 |
| 20260507081234 | 72 | 250 | 0.9 | 2.6 | 0.00 | 0.00 | 0.00 | 88 | 1014.8 |
| 20260507080734 | 72 | 248 | 0.9 | 3.5 | 0.00 | 0.00 | 0.00 | 88 | 1014.9 |
| 20260507075704 | 72 | 242 | 0.9 | 3.5 | 0.00 | 0.00 | 0.00 | 88 | 1014.9 |
| 20260507075204 | 72 | 238 | 0.9 | 2.6 | 0.00 | 0.00 | 0.00 | 88 | 1014.8 |
| 20260507074634 | 72 | 221 | 0.9 | 1.7 | 0.00 | 0.00 | 0.00 | 87 | 1014.8 |
| 20260507074134 | 73 | 227 | 0.9 | 1.7 | 0.00 | 0.00 | 0.00 | 87 | 1014.9 |
| 20260507073634 | 73 | 243 | 0.9 | 1.7 | 0.00 | 0.00 | 0.00 | 86 | 1015.0 |
| 20260507073134 | 73 | 243 | 0.0 | 1.7 | 0.00 | 0.00 | 0.00 | 86 | 1015.2 |
| 20260507072634 | 73 | 244 | 0.9 | 2.6 | 0.00 | 0.00 | 0.00 | 86 | 1015.1 |
| 20260507072134 | 73 | 242 | 1.7 | 3.5 | 0.00 | 0.00 | 0.00 | 86 | 1015.2 |
| 20260507071634 | 74 | 240 | 1.7 | 3.5 | 0.00 | 0.00 | 0.00 | 85 | 1015.2 |
| 20260507070634 | 74 | 239 | 1.7 | 3.5 | 0.00 | 0.00 | 0.00 | 85 | 1015.1 |
| 20260507065034 | 74 | 237 | 0.9 | 2.6 | 0.00 | 0.00 | 0.00 | 84 | 1015.2 |
| 20260507064534 | 74 | 231 | 0.9 | 1.7 | 0.00 | 0.00 | 0.00 | 84 | 1015.2 |
| 20260507063504 | 74 | 222 | 0.9 | 2.6 | 0.00 | 0.00 | 0.00 | 83 | 1015.3 |
| 20260507062434 | 74 | 242 | 1.7 | 2.6 | 0.00 | 0.00 | 0.00 | 82 | 1015.5 |
| 20260507061935 | 74 | 237 | 1.7 | 3.5 | 0.00 | 0.00 | 0.00 | 82 | 1015.4 |
| 20260507061404 | 74 | 229 | 0.9 | 3.5 | 0.00 | 0.00 | 0.00 | 81 | 1015.5 |
| 20260507060834 | 74 | 234 | 0.9 | 2.6 | 0.00 | 0.00 | 0.00 | 80 | 1015.8 |
| 20260507060334 | 74 | 241 | 1.7 | 5.2 | 0.00 | 0.00 | 0.00 | 79 | 1015.7 |
| 20260507055334 | 74 | 236 | 1.7 | 3.5 | 0.00 | 0.00 | 0.00 | 77 | 1015.6 |
| 20260507055005 | 75 | 206 | 0.9 | 2.6 | 0.00 | 0.00 | 0.00 | 76 | 1015.7 |
| 20260507054808 | 75 | 206 | 0.9 | 2.6 | 0.00 | 0.00 | 0.00 | 76 | 1015.7 |
| 20260507052734 | 75 | 196 | 0.9 | 2.6 | 0.00 | 0.00 | 0.00 | 74 | 1015.9 |
| 20260507052204 | 76 | 198 | 0.9 | 3.5 | 0.00 | 0.00 | 0.00 | 73 | 1016.0 |
| 20260507050604 | 76 | 202 | 0.9 | 2.6 | 0.00 | 0.00 | 0.00 | 75 | 1016.2 |
| 20260507045035 | 75 | 226 | 0.0 | 2.6 | 0.00 | 0.00 | 0.00 | 79 | 1016.4 |
| 20260507042434 | 75 | 221 | 0.9 | 0.9 | 0.00 | 0.00 | 0.00 | 82 | 1016.5 |
| 20260507041904 | 76 | 221 | 0.0 | 0.9 | 0.00 | 0.00 | 0.00 | 82 | 1016.5 |
| 20260507040334 | 77 | 216 | 0.0 | 0.9 | 0.00 | 0.00 | 0.00 | 81 | 1016.4 |
| 20260507035834 | 77 | 208 | 0.0 | 0.9 | 0.00 | 0.00 | 0.00 | 80 | 1016.5 |
| 20260507035334 | 77 | 207 | 0.0 | 0.9 | 0.00 | 0.00 | 0.00 | 80 | 1016.5 |
| 20260507033234 | 78 | 184 | 0.9 | 2.6 | 0.00 | 0.00 | 0.00 | 78 | 1016.4 |
| 20260507032704 | 78 | 194 | 0.9 | 4.3 | 0.00 | 0.00 | 0.00 | 78 | 1016.3 |
| 20260507032134 | 78 | 217 | 0.9 | 4.3 | 0.00 | 0.00 | 0.00 | 77 | 1016.2 |
| 20260507031634 | 78 | 234 | 1.7 | 6.1 | 0.00 | 0.00 | 0.00 | 77 | 1016.1 |
| 20260507031104 | 78 | 244 | 2.6 | 6.1 | 0.00 | 0.00 | 0.00 | 76 | 1016.1 |
| 20260507030604 | 78 | 244 | 2.6 | 6.1 | 0.00 | 0.00 | 0.00 | 75 | 1016.0 |
| 20260507030034 | 79 | 239 | 3.5 | 8.7 | 0.00 | 0.00 | 0.00 | 75 | 1015.8 |
| 20260507024934 | 79 | 236 | 4.3 | 8.7 | 0.00 | 0.00 | 0.00 | 74 | 1015.7 |
| 20260507024404 | 79 | 234 | 3.5 | 8.7 | 0.00 | 0.00 | 0.00 | 73 | 1015.7 |
| 20260507022234 | 80 | 246 | 2.6 | 6.1 | 0.00 | 0.00 | 0.00 | 74 | 1016.0 |
| 20260507021734 | 80 | 228 | 0.9 | 4.3 | 0.00 | 0.00 | 0.00 | 75 | 1015.9 |
| 20260507021234 | 81 | 198 | 1.7 | 5.2 | 0.00 | 0.00 | 0.00 | 74 | 1015.7 |
| 20260507020204 | 81 | 183 | 1.7 | 5.2 | 0.00 | 0.00 | 0.00 | 72 | 1015.7 |
| 20260507015634 | 82 | 124 | 1.7 | 5.2 | 0.00 | 0.00 | 0.00 | 68 | 1015.8 |
| 20260507015134 | 82 | 100 | 1.7 | 5.2 | 0.00 | 0.00 | 0.00 | 65 | 1015.7 |
| 20260507014104 | 82 | 153 | 0.9 | 5.2 | 0.00 | 0.00 | 0.00 | 64 | 1015.9 |
| 20260507013534 | 83 | 168 | 1.7 | 5.2 | 0.00 | 0.00 | 0.00 | 63 | 1015.9 |
| 20260507012007 | 83 | 136 | 2.6 | 7.8 | 0.00 | 0.00 | 0.00 | 63 | 1015.8 |
| 20260507010904 | 83 | 105 | 3.5 | 10.4 | 0.00 | 0.00 | 0.00 | 63 | 1015.7 |
| 20260507010333 | 84 | 114 | 2.6 | 8.7 | 0.00 | 0.00 | 0.00 | 63 | 1015.7 |
| 20260507005835 | 84 | 228 | 1.7 | 7.0 | 0.00 | 0.00 | 0.00 | 60 | 1015.8 |
| 20260507005306 | 84 | 235 | 2.6 | 7.0 | 0.00 | 0.00 | 0.00 | 60 | 1015.7 |
| 20260507004804 | 84 | 106 | 4.3 | 9.6 | 0.00 | 0.00 | 0.00 | 62 | 1015.5 |
| 20260507004234 | 84 | 100 | 8.7 | 14.8 | 0.00 | 0.00 | 0.00 | 62 | 1015.2 |
| 20260507003735 | 84 | 99 | 7.8 | 14.8 | 0.00 | 0.00 | 0.00 | 62 | 1015.1 |
| 20260507003234 | 84 | 101 | 4.3 | 14.8 | 0.00 | 0.00 | 0.00 | 62 | 1015.1 |
| 20260507002204 | 85 | 104 | 2.6 | 5.2 | 0.00 | 0.00 | 0.00 | 59 | 1014.9 |
| 20260507001634 | 86 | 105 | 1.7 | 5.2 | 0.00 | 0.00 | 0.00 | 58 | 1015.0 |
| 20260507001104 | 86 | 123 | 0.0 | 2.6 | 0.00 | 0.00 | 0.00 | 55 | 1014.8 |
| 20260507000604 | 87 | 154 | 0.0 | 0.9 | 0.00 | 0.00 | 0.00 | 54 | 1014.8 |
| 20260507000034 | 88 | 154 | 0.0 | 0.9 | 0.00 | 0.00 | 0.00 | 51 | 1014.7 |